Vorticity
11 10 6 5 6 8 8 6 4 5 9 13 15 18 22 21 20 20 14 12 17 14 8 7 8 9 8 6 5 4 7 13 13 10 12 16 14 10 9 10 12 13 11 12 13 9 8 7 7 9 8 5 6 7 6 2 2 4 5 5 6 6 6 6 6 6 4 5 8 8 8 10 12 13 11 10 10 11 11 10 9 8 11 12 9
11 10 8 8 9 10 11 10 8 8 9 11 12 13 19 23 19 18 18 18 18 13 3 0 5 9 9 9 9 5 4 8 10 11 13 15 18 17 12 11 16 17 13 9 6 4 7 8 8 7 7 10 8 2 2 4 4 4 4 6 6 6 7 7 6 7 7 7 7 7 8 9 11 12 12 10 11 11 10 10 10 9 10 12 9
9 9 8 8 8 9 10 12 11 10 10 12 12 10 16 24 19 11 15 19 22 19 9 3 6 9 8 9 9 7 7 7 7 9 10 8 11 19 19 12 14 16 9 4 2 2 6 8 7 2 6 15 9 -2 1 5 3 3 4 5 7 7 8 7 6 8 9 8 7 7 8 8 9 11 11 10 11 11 11 10 9 9 10 11 10
8 8 8 7 8 9 9 10 10 9 9 10 14 12 12 23 27 15 9 12 18 23 17 9 10 12 10 9 8 6 7 8 7 9 13 10 6 13 17 10 10 15 9 3 6 12 13 13 10 7 7 7 -1 -4 3 4 2 4 4 4 6 7 8 9 7 8 9 8 7 6 8 8 8 9 8 9 10 10 10 10 10 10 10 10 9
8 9 10 9 11 12 12 13 11 10 10 8 11 14 12 19 28 25 14 8 13 20 18 10 10 12 11 10 10 8 6 4 4 6 11 13 7 8 15 13 10 12 10 8 10 10 8 5 3 4 5 2 -3 -0 4 4 3 4 4 7 8 7 8 7 7 8 8 7 6 6 7 8 8 9 8 8 9 9 9 9 10 10 9 9 9
9 10 11 11 11 12 13 14 13 12 11 8 7 10 11 13 20 27 27 24 23 22 17 13 12 12 12 10 9 10 7 4 3 3 4 10 9 8 14 18 14 9 8 10 8 2 0 1 1 3 6 5 3 4 5 4 5 6 6 8 7 6 8 6 6 8 7 7 7 7 7 7 9 10 10 9 9 9 9 9 10 11 9 9 9
10 10 11 10 9 9 9 11 13 13 13 11 8 7 9 9 12 20 27 32 32 26 21 20 16 13 12 10 10 13 13 8 6 5 5 7 8 9 18 27 22 12 9 8 7 6 8 8 9 8 5 2 3 5 6 7 7 8 9 9 9 9 8 6 6 7 8 9 8 6 6 6 8 10 12 13 11 10 10 9 10 11 10 8 8
8 9 9 9 8 8 8 7 9 11 12 13 11 8 8 7 8 11 16 23 24 20 19 19 17 15 12 8 9 12 16 17 12 7 6 6 8 14 21 23 17 13 11 6 2 8 9 4 3 3 1 3 6 7 9 11 12 11 9 8 9 9 8 8 8 7 9 10 8 8 8 6 6 8 10 11 10 10 12 11 10 10 9 8 8
7 7 8 9 8 8 9 8 7 8 10 12 13 12 10 8 8 8 9 14 16 15 16 15 16 18 15 10 8 2 6 19 20 11 6 5 8 15 18 19 18 18 14 4 -1 5 8 2 0 3 5 7 8 8 10 12 13 15 17 16 12 8 9 10 8 8 10 10 8 8 9 7 8 9 10 10 10 10 11 11 9 9 8 8 8
4 5 6 7 6 4 5 7 7 7 7 9 11 12 12 10 10 9 8 8 8 10 12 12 14 17 14 14 14 3 -1 12 20 16 10 6 5 8 15 23 24 18 10 3 3 8 10 6 3 5 6 5 4 6 8 7 5 5 8 12 15 17 15 11 8 10 12 12 12 12 10 9 8 9 8 7 7 8 10 8 8 8 8 8 7
2 4 5 4 5 4 4 5 7 7 7 6 7 9 11 11 10 10 11 10 8 8 8 8 11 13 11 12 14 9 3 7 14 16 15 12 6 5 14 19 16 13 9 6 8 12 11 8 4 2 4 5 6 8 9 8 6 0 -3 -2 3 7 8 8 12 14 12 12 13 11 10 11 8 6 6 7 7 7 5 6 7 7 6 6 5
7 7 6 4 5 5 5 5 6 8 9 8 6 6 7 10 10 9 10 10 10 10 9 9 9 8 8 9 11 11 6 3 11 14 14 14 10 7 12 12 12 20 19 8 8 14 13 8 4 2 4 8 9 10 9 9 9 7 6 6 4 -1 -3 0 7 9 9 13 15 10 8 10 7 4 6 10 12 7 2 4 6 5 6 7 7
10 9 8 7 7 6 6 5 6 8 11 10 9 7 6 6 8 9 9 9 10 10 10 10 9 7 9 8 8 12 9 7 13 12 9 14 15 12 12 9 12 24 22 7 2 6 10 10 5 2 5 9 10 9 8 7 8 9 10 11 10 7 5 4 3 1 0 3 6 7 7 8 5 4 5 6 6 5 5 7 6 5 7 7 6
6 7 9 9 8 8 7 7 7 7 9 10 10 10 8 7 6 7 9 9 9 10 10 10 10 8 9 9 8 11 11 13 17 13 8 11 12 13 14 10 8 14 17 12 4 3 10 13 7 4 7 8 8 7 7 7 8 11 12 11 10 8 8 8 7 7 5 2 2 5 7 6 5 3 4 4 5 6 6 5 5 9 15 18 16
5 8 10 11 12 11 10 11 11 8 6 6 8 10 11 10 8 7 8 9 10 10 9 9 10 10 9 9 9 10 10 12 16 15 12 10 10 13 16 12 6 5 7 10 8 8 15 17 11 9 11 10 8 6 6 8 9 11 12 11 10 8 7 8 9 9 10 10 10 9 7 7 8 7 4 5 6 4 4 6 10 13 15 13 4
6 6 8 9 10 10 9 10 11 8 5 4 6 9 10 11 10 8 7 7 8 10 10 9 9 10 9 9 10 12 11 10 13 15 14 12 10 12 15 12 9 7 8 10 8 8 15 18 13 7 4 5 7 6 5 8 10 12 11 9 9 9 9 8 9 8 8 10 10 10 8 8 9 9 7 7 7 6 7 11 11 4 -2 -9 -15
6 4 4 3 3 3 4 6 7 7 7 6 7 8 9 10 11 10 9 8 7 8 9 9 9 10 10 9 9 12 14 12 12 14 15 15 12 13 17 15 9 8 9 9 7 7 12 15 10 2 1 4 7 7 7 9 10 10 10 10 10 10 9 8 8 9 8 8 8 9 9 8 6 5 4 5 7 9 10 11 10 6 1 -2 -1
8 8 8 7 6 6 7 7 8 8 9 10 10 9 9 10 10 9 10 9 8 8 8 8 8 9 10 10 8 10 14 15 14 14 17 19 16 14 19 16 6 6 11 11 9 7 9 15 14 7 6 7 6 6 6 8 10 9 8 11 11 10 10 9 8 7 7 7 8 8 8 8 7 6 6 6 7 9 9 9 9 9 8 8 11
9 9 8 8 7 6 6 5 5 5 5 6 9 10 9 9 9 10 10 9 9 10 10 9 8 7 8 11 10 9 11 13 15 16 18 18 14 17 24 15 -1 3 12 12 9 6 8 17 20 14 11 9 7 8 8 6 8 7 5 7 9 9 10 10 8 8 7 6 7 7 7 8 9 9 10 11 11 11 10 9 7 7 7 8 10
4 3 2 2 1 1 1 2 4 3 0 -0 3 7 9 9 8 9 10 10 10 11 10 10 10 8 7 8 9 11 12 13 16 17 18 15 7 11 20 9 -6 -0 11 11 12 10 7 11 13 12 14 12 6 6 8 7 7 6 2 1 5 8 10 10 10 9 8 8 8 8 8 9 10 11 11 10 10 9 9 9 9 9 7 5 3
2 2 2 1 1 0 -0 1 2 3 1 -2 -2 2 6 9 10 8 8 9 10 11 11 11 10 9 9 8 9 11 12 13 16 18 21 18 6 6 17 12 -1 5 14 11 12 11 5 6 9 9 13 15 10 6 6 7 8 7 3 1 3 5 5 7 9 10 9 9 8 8 9 9 10 11 9 8 8 6 5 6 5 2 0 2 3
7 7 6 6 6 6 5 5 3 3 3 1 -0 -0 1 6 10 9 6 6 9 10 11 11 10 9 9 8 10 10 11 18 24 21 20 17 5 4 16 12 -1 6 14 9 5 6 6 7 7 4 5 11 16 16 13 10 8 7 5 3 4 6 5 3 4 6 9 10 8 8 8 8 7 8 8 7 7 6 5 6 4 2 4 6 6
14 13 12 11 11 11 12 12 10 8 7 6 5 4 3 4 9 11 9 5 5 7 10 10 10 10 9 8 10 7 8 20 27 16 10 13 10 10 16 10 -2 2 10 7 4 8 13 13 8 5 7 12 17 20 18 14 10 10 9 6 4 4 6 5 5 6 7 9 9 8 7 7 7 7 6 5 6 7 8 8 7 8 9 8 6
12 13 14 13 12 12 13 14 15 15 14 12 10 9 7 4 5 10 14 12 7 6 7 8 9 10 10 9 10 9 11 27 32 15 3 13 21 18 14 11 7 6 10 15 17 16 13 11 11 13 15 17 20 23 21 16 13 12 11 9 5 5 8 12 13 11 9 9 10 11 11 9 6 3 3 4 5 6 8 10 10 9 8 7 7
11 11 12 12 12 11 11 10 12 13 14 15 15 13 13 11 7 5 9 14 15 11 8 8 8 10 10 9 9 10 16 31 40 27 14 20 27 20 10 7 9 15 20 20 15 10 6 7 11 13 15 15 15 15 13 12 10 9 10 9 9 10 12 12 9 7 8 9 9 11 14 14 10 6 3 2 2 4 7 8 6 3 3 6 8
14 13 13 13 13 13 12 11 11 10 10 11 13 13 14 16 15 10 5 8 15 17 14 12 10 10 12 9 7 9 10 13 18 21 19 18 16 15 14 9 3 11 22 18 7 6 10 10 7 5 7 9 8 5 5 6 5 5 6 6 5 6 6 5 2 2 7 10 8 7 10 14 14 10 6 5 4 2 3 4 4 4 6 9 11
16 16 16 16 15 14 14 14 13 13 11 10 10 11 11 12 15 15 10 6 10 14 17 17 14 11 12 11 8 9 11 8 9 16 19 17 15 15 16 14 10 14 23 21 11 9 10 5 -0 1 5 6 4 3 5 7 8 9 8 6 3 2 2 2 4 7 11 13 13 11 11 16 19 16 13 13 9 4 6 9 9 8 7 10 15
20 19 19 20 19 19 18 16 16 15 15 14 13 11 11 10 12 14 13 10 8 9 12 17 19 15 12 12 10 9 11 13 16 15 9 10 26 32 21 14 18 22 20 15 8 6 4 -0 -1 7 13 12 10 8 8 8 7 4 2 3 4 3 4 6 8 10 11 12 12 12 13 16 17 13 11 9 6 6 8 4 2 5 9 14 18
25 24 23 24 25 25 24 24 22 20 19 19 18 15 13 11 10 10 12 13 11 9 7 10 17 19 16 13 11 10 11 11 13 11 -0 -4 15 32 25 15 17 16 10 7 5 3 2 1 2 6 7 6 5 5 4 3 3 3 4 5 6 7 9 10 9 8 9 10 11 11 10 9 8 7 7 7 7 7 2 -4 6 25 30 21 13
28 27 26 25 26 27 27 27 28 27 25 23 23 22 19 16 13 10 10 11 12 12 10 8 11 16 19 16 11 9 11 9 6 7 6 2 6 14 15 15 19 18 12 9 8 7 6 7 8 7 5 3 2 3 4 6 8 8 8 8 8 7 7 8 9 10 10 11 13 12 8 7 7 8 10 10 6 4 6 14 30 37 25 8 2
27 27 26 25 25 25 25 25 26 27 28 27 27 26 24 22 20 15 13 12 11 12 13 12 11 13 17 18 13 9 11 12 7 3 6 6 4 3 3 5 10 16 17 13 10 7 7 7 6 5 5 5 5 6 7 6 3 1 2 6 10 11 9 10 12 10 8 8 11 10 5 3 5 7 8 8 10 18 29 35 29 17 4 1 6
22 22 22 22 23 22 23 23 22 22 24 25 26 27 27 26 25 22 18 16 15 13 13 14 14 14 14 15 15 12 11 13 13 8 4 2 0 0 2 1 0 5 12 15 15 13 12 10 9 6 5 6 5 5 4 1 -1 4 10 14 15 13 11 12 11 10 9 7 6 7 7 7 10 12 10 12 19 26 27 19 8 0 -1 4 8
20 18 17 18 19 20 21 22 22 21 21 21 21 23 24 25 27 27 24 21 18 17 16 14 15 16 15 14 15 14 12 13 14 12 9 7 6 7 8 6 1 0 3 7 12 16 17 18 16 14 13 11 9 9 8 8 12 17 18 19 19 15 13 14 14 11 7 1 -1 3 8 10 13 15 17 21 22 16 6 1 1 1 1 6 9
26 22 18 16 17 18 20 21 23 23 23 23 22 21 21 21 22 25 26 25 22 21 19 17 16 17 16 15 15 14 12 11 12 13 12 9 9 12 14 13 11 10 7 5 6 7 8 10 11 12 12 11 9 9 10 14 21 21 15 15 19 17 12 14 15 7 -2 -4 1 6 8 12 17 21 26 29 21 7 -1 0 3 4 7 13 14
27 28 24 19 17 17 18 19 22 25 26 26 25 24 23 21 20 20 21 23 23 23 22 20 17 17 17 17 16 15 14 11 10 12 13 9 5 3 6 8 10 12 14 13 12 11 10 11 11 12 11 10 9 9 9 12 20 23 17 13 17 18 15 16 18 12 5 5 7 5 6 16 22 17 14 16 11 2 1 4 6 10 14 16 13
19 24 27 24 20 18 17 16 17 20 24 27 29 28 27 25 23 22 20 19 20 21 22 22 20 18 18 17 16 16 17 15 12 10 13 14 11 7 4 1 2 5 7 8 9 10 10 11 11 12 13 12 12 13 14 15 20 25 21 13 12 14 14 10 9 8 5 6 7 7 12 22 21 9 4 9 11 9 10 12 14 16 17 14 12
10 16 22 24 22 19 17 16 15 15 18 22 27 30 30 28 27 26 24 22 20 19 20 23 23 21 19 18 16 15 16 19 19 16 14 15 16 16 14 9 5 5 5 6 7 7 7 8 9 9 10 11 12 14 15 15 17 22 24 18 12 11 10 8 8 9 11 13 15 16 18 20 17 11 10 14 16 16 18 18 17 16 15 14 13
5 8 13 19 22 21 17 15 14 14 14 17 21 26 28 28 26 25 25 25 24 22 20 22 24 25 24 21 17 12 11 14 17 19 18 16 14 14 16 16 14 13 12 11 11 11 10 11 13 13 12 13 13 13 12 12 12 15 20 22 20 18 18 19 19 20 20 20 18 17 16 17 17 17 17 18 18 17 16 14 13 12 12 12 12
3 4 6 11 16 20 18 15 13 12 12 13 16 21 26 28 26 22 21 23 24 24 22 21 22 24 27 27 23 16 11 9 9 11 14 16 16 15 16 18 20 21 19 17 15 14 14 14 15 15 14 13 11 11 11 10 9 10 12 15 18 19 19 19 18 17 18 17 17 18 19 19 20 19 18 16 15 14 13 13 13 13 12 11 10
2 2 4 6 10 15 18 17 14 12 11 12 13 17 21 26 27 24 20 18 20 23 24 23 22 22 25 28 29 25 18 13 8 6 6 9 11 13 13 13 14 17 19 20 18 16 14 12 12 12 11 10 9 9 10 10 11 12 13 14 14 14 14 15 15 16 17 17 16 16 16 15 15 16 16 16 16 15 15 15 14 12 10 9 8
3 2 2 4 6 9 14 17 16 13 11 11 12 14 17 21 26 27 23 17 15 19 22 23 22 21 22 25 29 30 27 22 16 11 8 7 8 9 10 10 10 9 9 12 15 15 14 13 13 12 12 11 10 10 11 13 14 15 15 15 15 15 15 15 15 15 15 16 16 15 15 15 15 15 15 15 15 14 13 11 10 9 8 7 7
6 4 2 2 4 6 10 13 15 15 13 11 11 13 16 18 22 25 24 20 16 15 18 21 21 20 20 21 23 27 30 30 25 19 16 14 12 11 11 12 13 13 11 9 9 10 11 12 13 14 13 12 12 12 13 13 13 13 12 13 13 14 14 14 15 15 15 16 16 16 16 16 15 14 12 11 11 10 10 9 8 8 8 8 9
8 7 5 3 3 4 7 11 13 15 14 12 12 13 14 18 22 23 23 22 19 16 15 18 20 19 18 18 19 22 26 30 30 26 21 19 17 14 11 10 12 15 18 18 15 12 9 8 9 10 10 10 10 11 11 11 11 10 10 11 12 13 14 15 16 17 17 16 16 15 14 14 13 12 11 10 9 8 8 7 7 8 9 10 11
9 8 7 5 3 3 5 8 12 14 14 13 13 13 14 17 22 25 24 21 19 18 16 16 19 20 18 16 16 18 20 24 28 28 25 23 22 19 16 13 11 10 13 17 19 19 18 16 14 13 12 12 13 13 13 14 15 15 16 16 15 15 15 15 14 14 13 13 13 13 12 11 11 10 10 9 9 8 8 9 9 10 10 10 11
9 9 8 7 5 3 4 6 9 12 14 13 12 13 14 15 20 26 26 21 17 17 18 17 18 21 21 18 15 16 16 17 21 25 26 25 23 22 21 19 17 14 12 12 14 17 19 20 19 18 18 18 18 17 17 17 17 18 18 17 16 16 16 15 14 13 12 11 11 10 9 9 9 8 9 8 8 8 8 9 9 10 11 12 14
8 8 9 9 7 4 4 5 8 11 13 14 13 13 13 15 18 24 26 22 17 16 19 19 18 20 22 21 18 16 16 15 16 19 22 23 23 23 22 20 19 19 17 15 13 13 14 15 16 17 17 17 17 17 17 18 17 17 16 15 15 15 14 13 13 12 11 10 9 9 9 9 8 8 8 8 9 10 11 12 14 16 17 18 19
8 8 9 9 9 6 4 5 7 10 12 14 15 14 14 15 19 23 25 22 17 14 15 19 20 19 19 20 20 18 17 16 15 14 16 19 20 21 21 20 19 19 19 18 16 14 14 14 15 15 15 15 15 15 15 15 15 14 14 14 14 13 13 12 12 11 11 10 10 10 10 10 10 11 11 12 13 14 16 17 19 19 19 20 20
7 8 9 9 9 8 5 4 6 9 11 13 14 15 14 15 19 24 25 23 18 11 9 13 19 21 20 19 18 18 18 18 16 15 14 15 16 18 19 19 18 17 17 18 18 17 16 15 14 14 14 14 15 15 15 14 14 14 14 14 14 14 13 12 11 11 11 11 12 12 11 12 12 13 14 15 16 17 18 18 19 18 18 17 16
7 8 9 10 9 9 7 5 4 7 10 12 14 15 15 16 19 24 26 23 18 12 6 6 13 20 23 21 19 17 18 18 18 16 15 14 14 15 17 18 17 17 16 16 16 16 15 15 14 15 15 15 14 14 13 13 14 14 14 14 13 12 11 10 10 11 11 11 11 12 12 13 13 14 14 14 15 15 16 16 16 15 14 13 13
8 8 9 10 10 9 8 6 5 5 8 11 13 14 16 17 19 23 26 25 20 14 8 5 7 13 20 23 22 18 17 17 18 18 16 15 14 14 14 16 17 17 16 15 15 14 14 14 14 15 15 14 14 14 14 14 14 14 13 12 11 10 10 10 10 11 11 11 11 11 12 12 11 11 11 11 11 11 11 12 12 12 13 13 13
8 8 9 9 10 10 9 7 6 5 7 10 12 13 15 18 20 22 25 26 22 16 11 9 7 7 11 18 23 22 18 16 17 18 17 16 15 14 14 15 16 16 17 17 16 16 15 15 14 14 14 14 14 14 14 14 13 12 11 10 9 9 9 9 9 9 9 10 10 10 11 11 11 11 10 10 10 9 8 8 9 10 12 12 12
Height
5766 5765 5764 5763 5762 5762 5761 5760 5758 5757 5756 5755 5754 5752 5751 5751 5750 5749 5749 5750 5750 5751 5751 5751 5752 5752 5753 5754 5755 5756 5757 5758 5760 5761 5762 5763 5764 5766 5767 5769 5770 5772 5773 5774 5775 5775 5776 5777 5779 5780 5781 5782 5782 5783 5784 5784 5785 5785 5785 5786 5787 5788 5790 5790 5791 5790 5789 5790 5790 5790 5790 5790 5789 5789 5790 5790 5791 5791 5792 5792 5793 5793 5793 5793 5794
5764 5763 5762 5761 5760 5759 5758 5757 5756 5754 5753 5752 5750 5749 5748 5747 5746 5746 5745 5746 5747 5747 5747 5748 5748 5749 5749 5751 5752 5752 5753 5754 5756 5757 5758 5760 5761 5762 5763 5765 5766 5768 5769 5770 5771 5772 5773 5774 5776 5776 5777 5779 5780 5780 5781 5782 5782 5782 5782 5783 5784 5785 5786 5787 5787 5787 5787 5787 5787 5787 5787 5787 5787 5787 5787 5787 5788 5788 5789 5789 5790 5790 5790 5791 5791
5761 5760 5759 5758 5757 5756 5755 5754 5752 5751 5750 5748 5747 5746 5744 5743 5742 5742 5742 5742 5742 5743 5744 5745 5745 5745 5746 5747 5748 5750 5750 5751 5752 5753 5755 5756 5757 5758 5760 5760 5761 5763 5765 5766 5768 5769 5770 5771 5772 5773 5774 5776 5776 5776 5777 5778 5778 5779 5780 5780 5780 5781 5782 5783 5784 5784 5784 5784 5784 5784 5784 5784 5784 5784 5784 5784 5785 5785 5786 5786 5786 5787 5787 5788 5788
5759 5758 5757 5756 5754 5753 5752 5751 5750 5748 5747 5745 5744 5743 5741 5740 5739 5739 5739 5738 5738 5739 5740 5741 5741 5742 5743 5744 5745 5746 5747 5748 5749 5750 5751 5752 5753 5754 5756 5756 5757 5760 5762 5763 5764 5765 5766 5767 5768 5769 5771 5772 5773 5773 5774 5774 5775 5775 5776 5776 5776 5778 5779 5780 5780 5781 5781 5781 5781 5781 5781 5781 5781 5781 5781 5781 5782 5782 5782 5783 5783 5783 5784 5785 5785
5756 5755 5754 5753 5752 5751 5749 5748 5747 5745 5744 5742 5741 5739 5738 5737 5736 5735 5735 5735 5735 5735 5736 5737 5738 5739 5740 5741 5742 5743 5744 5745 5746 5747 5747 5748 5749 5751 5752 5753 5754 5756 5758 5760 5761 5762 5763 5764 5765 5766 5768 5768 5769 5770 5770 5771 5771 5772 5772 5772 5773 5774 5775 5776 5777 5777 5778 5778 5778 5778 5778 5778 5778 5778 5778 5778 5779 5779 5779 5779 5780 5780 5781 5781 5782
5753 5752 5751 5750 5749 5748 5747 5745 5744 5742 5741 5739 5738 5736 5735 5734 5733 5732 5731 5731 5731 5731 5732 5733 5734 5735 5736 5738 5739 5740 5740 5741 5742 5743 5744 5744 5746 5747 5748 5749 5750 5752 5755 5756 5757 5759 5760 5761 5762 5764 5765 5765 5765 5766 5767 5768 5768 5768 5769 5769 5769 5770 5771 5772 5773 5774 5774 5774 5775 5775 5775 5775 5775 5775 5775 5775 5776 5776 5776 5776 5777 5777 5777 5778 5779
5750 5749 5748 5748 5746 5745 5744 5743 5742 5740 5738 5737 5735 5734 5732 5731 5730 5729 5728 5728 5728 5728 5728 5729 5730 5731 5733 5734 5735 5736 5736 5736 5738 5739 5740 5741 5741 5743 5744 5745 5746 5748 5750 5752 5753 5755 5757 5758 5759 5761 5761 5761 5762 5763 5764 5765 5765 5765 5765 5766 5766 5767 5767 5768 5770 5770 5771 5772 5772 5772 5772 5772 5772 5772 5772 5772 5772 5772 5773 5773 5773 5774 5774 5775 5776
5747 5746 5746 5745 5744 5743 5742 5741 5740 5738 5736 5734 5733 5731 5730 5729 5727 5727 5726 5726 5725 5725 5726 5726 5727 5728 5729 5730 5731 5731 5731 5732 5733 5734 5736 5736 5737 5738 5740 5741 5741 5743 5746 5748 5749 5751 5752 5754 5755 5757 5758 5758 5759 5760 5761 5762 5762 5762 5762 5763 5763 5764 5764 5765 5766 5767 5768 5770 5769 5768 5769 5769 5769 5769 5769 5769 5769 5769 5770 5770 5770 5770 5771 5771 5772
5744 5743 5742 5742 5741 5740 5739 5738 5738 5736 5735 5733 5731 5729 5728 5727 5726 5724 5724 5723 5723 5723 5723 5723 5724 5724 5725 5726 5727 5727 5727 5727 5729 5730 5731 5732 5733 5734 5736 5737 5737 5740 5742 5742 5743 5745 5747 5749 5751 5753 5754 5754 5755 5756 5757 5758 5758 5758 5759 5760 5760 5761 5762 5762 5763 5765 5766 5767 5767 5766 5766 5766 5766 5766 5766 5765 5766 5767 5767 5767 5766 5767 5768 5768 5769
5740 5739 5739 5738 5737 5737 5736 5735 5735 5734 5733 5731 5729 5728 5726 5725 5724 5723 5722 5721 5721 5720 5720 5720 5720 5721 5721 5722 5723 5723 5723 5724 5725 5726 5726 5727 5728 5730 5731 5732 5733 5736 5737 5737 5738 5740 5743 5745 5747 5748 5749 5749 5751 5752 5753 5754 5754 5755 5756 5757 5757 5758 5759 5758 5760 5762 5763 5764 5764 5763 5763 5763 5762 5762 5762 5762 5762 5763 5763 5763 5763 5764 5764 5765 5765
5737 5736 5735 5734 5733 5733 5732 5732 5731 5730 5730 5729 5728 5726 5724 5723 5722 5721 5720 5719 5718 5718 5717 5717 5717 5717 5717 5718 5718 5719 5719 5720 5721 5721 5722 5723 5724 5726 5728 5729 5730 5731 5732 5733 5734 5736 5738 5740 5741 5743 5744 5745 5746 5747 5748 5750 5751 5752 5753 5754 5754 5754 5755 5755 5757 5759 5760 5761 5761 5759 5759 5759 5757 5757 5758 5758 5759 5760 5760 5759 5760 5760 5761 5761 5762
5733 5732 5731 5730 5730 5729 5728 5727 5727 5726 5726 5725 5725 5724 5722 5721 5720 5719 5718 5717 5716 5716 5715 5715 5714 5714 5714 5714 5714 5715 5715 5715 5715 5716 5717 5718 5720 5723 5724 5725 5726 5727 5727 5729 5730 5731 5733 5735 5737 5738 5739 5741 5742 5743 5744 5745 5746 5747 5749 5750 5750 5751 5752 5752 5754 5755 5755 5756 5756 5755 5756 5755 5752 5752 5754 5755 5755 5756 5757 5756 5756 5756 5757 5757 5757
5728 5728 5727 5726 5725 5725 5724 5723 5722 5722 5722 5721 5721 5720 5719 5718 5717 5716 5715 5714 5714 5713 5713 5712 5712 5711 5711 5711 5711 5711 5712 5712 5712 5712 5713 5714 5716 5719 5721 5721 5722 5722 5723 5724 5725 5726 5728 5730 5732 5733 5734 5736 5737 5738 5739 5740 5741 5743 5743 5745 5746 5747 5748 5749 5750 5751 5751 5752 5752 5751 5752 5751 5749 5749 5750 5751 5752 5753 5753 5753 5752 5752 5752 5752 5752
5724 5723 5723 5722 5721 5720 5719 5719 5718 5718 5717 5717 5716 5716 5715 5715 5714 5713 5713 5712 5711 5710 5710 5709 5709 5708 5708 5708 5708 5708 5708 5708 5708 5708 5709 5711 5712 5715 5717 5717 5717 5718 5718 5719 5721 5722 5723 5725 5727 5728 5729 5731 5732 5733 5734 5735 5736 5737 5738 5739 5740 5741 5743 5744 5745 5746 5746 5747 5748 5748 5747 5747 5746 5746 5746 5748 5749 5749 5749 5749 5748 5747 5747 5747 5747
5720 5719 5718 5717 5716 5715 5715 5714 5714 5713 5713 5712 5712 5711 5711 5710 5710 5710 5709 5708 5708 5707 5706 5706 5705 5705 5705 5704 5704 5704 5705 5705 5704 5705 5706 5707 5707 5709 5711 5711 5712 5713 5713 5714 5715 5717 5719 5721 5724 5724 5724 5725 5727 5728 5729 5730 5731 5732 5733 5734 5735 5736 5737 5738 5739 5740 5741 5742 5743 5743 5743 5742 5742 5741 5742 5743 5744 5744 5744 5745 5744 5743 5742 5742 5743
5715 5714 5713 5713 5712 5711 5710 5710 5709 5709 5709 5708 5707 5706 5706 5705 5705 5705 5705 5704 5704 5703 5703 5702 5702 5701 5701 5701 5700 5700 5701 5701 5700 5701 5701 5702 5702 5703 5705 5707 5707 5708 5709 5709 5710 5712 5714 5718 5720 5720 5719 5720 5722 5723 5724 5725 5727 5728 5729 5730 5730 5731 5732 5733 5734 5735 5736 5737 5737 5738 5737 5737 5737 5737 5738 5739 5739 5739 5739 5740 5740 5739 5738 5738 5739
5710 5709 5708 5708 5707 5706 5706 5705 5704 5704 5704 5703 5702 5702 5701 5700 5700 5700 5700 5700 5700 5699 5699 5698 5698 5697 5697 5697 5696 5696 5696 5696 5696 5696 5697 5697 5697 5698 5700 5701 5702 5702 5703 5704 5705 5707 5709 5712 5714 5714 5714 5715 5717 5718 5719 5721 5722 5723 5724 5725 5725 5726 5727 5728 5729 5729 5730 5731 5732 5732 5732 5733 5733 5733 5734 5734 5735 5735 5735 5735 5736 5736 5735 5735 5735
5704 5704 5703 5702 5701 5701 5700 5700 5699 5699 5699 5699 5698 5697 5696 5695 5695 5695 5695 5695 5695 5695 5695 5694 5694 5693 5693 5692 5692 5692 5692 5692 5692 5692 5692 5692 5693 5694 5695 5696 5696 5697 5698 5700 5701 5702 5704 5705 5706 5707 5709 5710 5711 5712 5714 5716 5717 5718 5719 5720 5721 5721 5722 5723 5723 5724 5725 5726 5726 5727 5728 5728 5729 5729 5730 5730 5730 5730 5731 5731 5731 5731 5731 5731 5731
5699 5698 5698 5697 5696 5695 5694 5694 5693 5693 5693 5693 5693 5693 5692 5691 5690 5689 5689 5689 5690 5690 5690 5690 5690 5689 5688 5688 5687 5687 5688 5687 5687 5687 5688 5687 5688 5689 5690 5691 5691 5692 5693 5694 5695 5696 5698 5700 5700 5701 5703 5704 5706 5707 5709 5710 5712 5713 5714 5715 5716 5717 5717 5718 5719 5719 5720 5721 5721 5722 5722 5723 5724 5725 5725 5726 5726 5726 5726 5727 5727 5727 5726 5726 5726
5694 5693 5692 5691 5690 5689 5688 5687 5687 5686 5687 5687 5687 5687 5687 5686 5685 5685 5684 5684 5684 5684 5685 5685 5685 5684 5684 5683 5683 5683 5683 5683 5682 5683 5683 5683 5684 5685 5686 5686 5686 5687 5688 5689 5690 5691 5694 5695 5694 5695 5697 5699 5700 5702 5703 5705 5706 5707 5709 5710 5711 5712 5712 5713 5714 5714 5715 5716 5716 5716 5717 5718 5719 5720 5720 5721 5722 5722 5721 5722 5722 5721 5720 5720 5719
5689 5688 5687 5686 5685 5684 5683 5682 5680 5680 5680 5680 5680 5681 5681 5681 5680 5680 5679 5679 5679 5679 5679 5679 5679 5679 5679 5678 5678 5678 5678 5678 5677 5678 5679 5680 5679 5680 5681 5681 5681 5682 5683 5684 5685 5687 5689 5689 5689 5689 5691 5693 5694 5696 5697 5699 5700 5702 5703 5704 5705 5706 5707 5708 5709 5709 5710 5711 5711 5711 5712 5713 5714 5714 5714 5715 5716 5717 5716 5716 5717 5716 5715 5714 5713
5683 5682 5681 5680 5679 5678 5677 5676 5675 5674 5673 5673 5672 5673 5674 5674 5674 5674 5674 5673 5673 5673 5674 5673 5673 5673 5673 5673 5673 5673 5672 5672 5672 5672 5674 5675 5673 5674 5675 5675 5675 5676 5677 5678 5680 5681 5683 5684 5684 5685 5686 5687 5689 5690 5692 5693 5695 5696 5697 5699 5700 5701 5702 5703 5703 5704 5705 5705 5706 5706 5707 5708 5708 5708 5709 5709 5710 5711 5711 5711 5711 5710 5709 5709 5708
5678 5676 5675 5673 5672 5672 5671 5670 5669 5668 5667 5666 5666 5665 5666 5666 5667 5668 5668 5668 5667 5668 5668 5668 5668 5668 5667 5667 5667 5667 5667 5667 5666 5667 5668 5669 5667 5667 5669 5668 5669 5670 5671 5672 5674 5675 5677 5678 5679 5680 5681 5682 5683 5685 5687 5688 5689 5690 5692 5693 5695 5696 5697 5697 5698 5699 5699 5700 5700 5701 5702 5702 5702 5703 5703 5704 5704 5705 5705 5704 5704 5703 5703 5703 5702
5672 5670 5669 5668 5666 5665 5664 5664 5663 5662 5661 5660 5659 5659 5658 5659 5659 5660 5661 5661 5661 5661 5661 5662 5662 5662 5662 5662 5662 5662 5662 5661 5661 5661 5663 5663 5662 5662 5663 5663 5664 5665 5665 5666 5668 5669 5671 5673 5674 5675 5677 5678 5679 5680 5681 5683 5684 5685 5686 5688 5689 5690 5691 5691 5692 5693 5694 5694 5695 5695 5696 5696 5696 5697 5697 5698 5698 5698 5698 5697 5697 5697 5696 5696 5695
5666 5664 5663 5661 5660 5659 5658 5657 5656 5655 5654 5654 5653 5652 5652 5652 5652 5652 5653 5654 5655 5655 5655 5655 5656 5656 5657 5657 5656 5656 5656 5655 5655 5655 5656 5657 5657 5657 5658 5658 5659 5660 5660 5661 5663 5664 5665 5668 5669 5671 5672 5673 5674 5675 5677 5678 5679 5680 5682 5683 5684 5685 5685 5686 5687 5687 5688 5688 5689 5690 5690 5690 5690 5690 5690 5691 5691 5691 5691 5690 5690 5690 5689 5689 5689
5660 5658 5656 5655 5654 5652 5651 5650 5649 5649 5648 5647 5647 5647 5646 5645 5645 5645 5645 5646 5647 5648 5649 5649 5649 5650 5651 5651 5651 5651 5651 5651 5651 5651 5651 5651 5651 5652 5653 5653 5654 5655 5656 5657 5658 5660 5661 5663 5665 5667 5668 5669 5670 5671 5672 5673 5675 5675 5676 5677 5678 5679 5680 5681 5681 5682 5682 5682 5683 5683 5684 5684 5683 5683 5683 5684 5684 5684 5684 5684 5683 5683 5683 5683 5682
5653 5651 5649 5648 5646 5645 5644 5643 5642 5642 5641 5641 5640 5640 5640 5639 5639 5639 5639 5639 5640 5641 5642 5643 5643 5643 5644 5645 5646 5646 5645 5646 5646 5646 5646 5646 5646 5647 5647 5648 5649 5650 5651 5653 5654 5656 5657 5659 5660 5662 5663 5665 5666 5667 5667 5668 5669 5670 5671 5671 5672 5673 5674 5675 5675 5676 5676 5676 5677 5677 5677 5677 5677 5677 5677 5677 5677 5677 5677 5677 5677 5676 5676 5676 5676
5646 5644 5642 5640 5639 5638 5637 5636 5635 5634 5634 5633 5633 5633 5633 5633 5632 5632 5632 5632 5633 5634 5635 5636 5637 5637 5638 5639 5639 5640 5640 5640 5641 5641 5641 5641 5640 5641 5641 5642 5644 5645 5646 5648 5649 5651 5652 5654 5655 5657 5658 5659 5660 5661 5662 5662 5663 5664 5664 5665 5666 5667 5667 5668 5668 5669 5669 5670 5670 5670 5671 5670 5670 5670 5670 5670 5670 5670 5670 5670 5669 5669 5669 5668 5668
5639 5637 5635 5633 5631 5630 5629 5628 5627 5627 5626 5625 5625 5625 5626 5626 5626 5625 5625 5625 5626 5627 5628 5629 5630 5631 5632 5632 5633 5634 5634 5634 5635 5635 5635 5635 5636 5636 5636 5637 5638 5640 5641 5643 5644 5645 5646 5648 5649 5651 5652 5653 5654 5654 5655 5656 5657 5658 5658 5659 5659 5660 5660 5661 5661 5662 5662 5663 5663 5663 5663 5664 5664 5664 5663 5663 5663 5663 5663 5663 5662 5661 5661 5661 5661
5633 5631 5629 5627 5625 5623 5622 5621 5620 5619 5618 5618 5617 5617 5617 5617 5618 5618 5619 5619 5619 5620 5621 5621 5623 5624 5625 5626 5626 5627 5627 5628 5629 5630 5630 5630 5631 5631 5632 5633 5634 5635 5636 5637 5639 5640 5641 5641 5642 5644 5645 5646 5647 5648 5649 5650 5651 5651 5652 5652 5653 5653 5653 5654 5654 5655 5655 5655 5656 5656 5656 5657 5657 5656 5656 5656 5655 5655 5655 5655 5654 5654 5654 5654 5654
5629 5627 5625 5622 5620 5618 5617 5615 5614 5612 5611 5610 5610 5610 5609 5609 5609 5610 5611 5612 5612 5612 5613 5614 5615 5617 5618 5619 5620 5620 5621 5621 5622 5623 5624 5625 5625 5626 5627 5628 5629 5630 5631 5632 5633 5634 5635 5636 5637 5637 5638 5639 5640 5641 5642 5643 5644 5645 5645 5646 5646 5647 5647 5647 5647 5648 5648 5648 5648 5649 5649 5649 5649 5649 5649 5648 5648 5648 5648 5647 5647 5647 5648 5648 5648
5626 5623 5621 5619 5617 5614 5612 5610 5609 5607 5605 5604 5603 5603 5602 5602 5602 5602 5603 5604 5604 5605 5606 5607 5608 5609 5611 5612 5613 5613 5614 5614 5616 5616 5617 5618 5619 5620 5621 5622 5623 5624 5625 5626 5627 5628 5629 5630 5631 5631 5632 5633 5634 5635 5635 5636 5637 5638 5638 5639 5639 5640 5640 5640 5640 5641 5641 5641 5642 5642 5642 5642 5642 5642 5642 5641 5641 5641 5641 5641 5641 5641 5641 5642 5641
5624 5621 5618 5616 5614 5611 5609 5607 5605 5602 5600 5599 5598 5597 5596 5595 5595 5595 5595 5596 5597 5597 5598 5599 5600 5601 5603 5604 5606 5607 5607 5608 5609 5610 5611 5612 5613 5614 5615 5616 5617 5618 5619 5620 5621 5621 5622 5623 5624 5625 5626 5626 5627 5628 5628 5629 5630 5630 5631 5632 5632 5632 5633 5633 5634 5634 5635 5635 5636 5636 5636 5636 5635 5635 5634 5634 5634 5634 5634 5634 5634 5634 5635 5635 5634
5622 5619 5616 5614 5611 5609 5606 5604 5601 5599 5596 5594 5593 5592 5590 5589 5589 5588 5589 5589 5589 5590 5590 5591 5592 5593 5595 5596 5598 5599 5600 5601 5602 5603 5604 5605 5606 5607 5608 5609 5610 5611 5612 5613 5614 5615 5616 5616 5617 5618 5619 5620 5620 5621 5622 5622 5623 5623 5624 5625 5625 5625 5626 5627 5627 5628 5629 5629 5629 5629 5629 5629 5628 5628 5627 5627 5627 5628 5628 5628 5628 5628 5628 5628 5627
5621 5617 5614 5612 5609 5606 5604 5601 5598 5595 5593 5590 5588 5587 5585 5584 5584 5583 5583 5583 5583 5583 5583 5584 5585 5586 5587 5589 5590 5592 5593 5594 5595 5596 5597 5598 5599 5600 5601 5602 5603 5604 5605 5606 5607 5608 5609 5610 5610 5611 5612 5613 5614 5615 5615 5616 5616 5616 5617 5618 5618 5619 5619 5620 5621 5622 5622 5623 5623 5623 5623 5622 5622 5621 5621 5621 5621 5621 5622 5622 5622 5622 5621 5621 5620
5619 5616 5613 5610 5607 5604 5601 5599 5596 5593 5590 5587 5585 5583 5581 5579 5578 5578 5577 5577 5576 5576 5576 5576 5578 5579 5580 5581 5583 5585 5586 5587 5588 5589 5590 5591 5592 5593 5594 5595 5596 5597 5598 5599 5600 5601 5602 5603 5604 5605 5605 5606 5607 5608 5609 5609 5610 5610 5610 5611 5611 5612 5613 5614 5614 5615 5616 5616 5616 5616 5616 5616 5615 5615 5615 5615 5615 5615 5615 5615 5615 5615 5614 5614 5613
5619 5615 5612 5608 5605 5602 5599 5596 5593 5591 5587 5584 5582 5579 5577 5575 5574 5573 5572 5572 5571 5571 5570 5570 5571 5572 5574 5575 5576 5578 5579 5580 5581 5582 5583 5584 5585 5586 5587 5588 5589 5590 5591 5592 5594 5595 5596 5597 5598 5599 5599 5600 5601 5602 5602 5603 5603 5603 5603 5604 5604 5605 5606 5607 5607 5608 5608 5609 5609 5609 5609 5609 5609 5609 5609 5609 5609 5609 5609 5608 5608 5608 5607 5607 5606
5619 5615 5612 5608 5605 5601 5598 5594 5592 5589 5585 5582 5579 5576 5574 5572 5570 5569 5568 5567 5567 5566 5565 5564 5565 5566 5567 5569 5570 5571 5572 5573 5574 5575 5576 5577 5579 5579 5580 5581 5583 5584 5585 5586 5587 5588 5589 5590 5591 5592 5593 5594 5595 5595 5596 5596 5596 5597 5597 5597 5598 5599 5599 5600 5600 5601 5601 5602 5602 5602 5602 5602 5603 5603 5603 5603 5602 5602 5602 5602 5602 5601 5601 5600 5600
5618 5615 5611 5607 5604 5600 5597 5594 5590 5587 5584 5580 5577 5574 5572 5569 5567 5565 5564 5563 5562 5561 5560 5560 5560 5560 5561 5562 5564 5565 5566 5566 5568 5569 5570 5572 5573 5574 5575 5576 5577 5578 5579 5580 5581 5582 5583 5584 5585 5586 5587 5587 5588 5589 5589 5590 5590 5591 5591 5591 5592 5592 5593 5594 5594 5595 5595 5596 5596 5596 5596 5596 5596 5596 5596 5596 5596 5596 5596 5596 5596 5595 5595 5595 5595
5617 5613 5610 5606 5603 5599 5596 5592 5589 5586 5582 5579 5575 5572 5569 5566 5564 5562 5561 5560 5559 5558 5556 5556 5556 5555 5555 5556 5558 5558 5559 5560 5561 5563 5564 5566 5567 5568 5569 5570 5571 5572 5573 5574 5575 5576 5577 5578 5579 5580 5581 5582 5582 5583 5584 5584 5585 5585 5586 5586 5587 5587 5588 5588 5588 5589 5589 5590 5590 5590 5591 5591 5591 5591 5590 5590 5590 5590 5590 5590 5590 5590 5590 5590 5590
5615 5612 5609 5605 5602 5598 5594 5591 5588 5584 5581 5578 5574 5570 5567 5564 5561 5560 5558 5557 5555 5554 5553 5552 5552 5551 5551 5551 5552 5552 5553 5554 5555 5557 5558 5559 5561 5563 5564 5565 5566 5566 5567 5568 5569 5571 5572 5573 5574 5575 5576 5576 5577 5578 5578 5579 5580 5580 5581 5581 5582 5582 5583 5583 5583 5583 5583 5584 5584 5584 5584 5585 5585 5585 5585 5585 5585 5585 5585 5585 5585 5585 5585 5585 5585
5614 5611 5607 5604 5600 5597 5593 5589 5586 5583 5579 5576 5573 5569 5565 5562 5559 5557 5555 5554 5552 5551 5550 5549 5548 5547 5547 5547 5547 5547 5548 5549 5550 5551 5552 5553 5555 5556 5558 5559 5560 5560 5561 5562 5563 5565 5566 5567 5568 5569 5570 5571 5571 5572 5573 5573 5574 5575 5575 5576 5576 5577 5577 5577 5578 5578 5578 5578 5578 5578 5578 5579 5579 5579 5579 5580 5580 5580 5580 5580 5580 5580 5580 5580 5579
5612 5609 5606 5603 5599 5596 5592 5588 5585 5581 5578 5575 5571 5568 5564 5560 5557 5554 5552 5551 5549 5548 5547 5546 5545 5544 5543 5543 5543 5543 5543 5544 5544 5545 5546 5547 5549 5550 5552 5553 5554 5554 5555 5556 5557 5559 5560 5561 5562 5563 5564 5564 5566 5566 5567 5568 5568 5569 5569 5570 5570 5571 5571 5571 5572 5572 5572 5573 5573 5573 5574 5574 5574 5574 5574 5574 5575 5575 5575 5575 5575 5575 5575 5574 5574
5611 5608 5605 5601 5598 5595 5591 5587 5583 5580 5577 5573 5570 5566 5562 5559 5556 5553 5550 5548 5546 5545 5544 5543 5542 5541 5540 5540 5539 5539 5539 5539 5539 5540 5541 5542 5543 5544 5546 5547 5548 5549 5549 5550 5551 5553 5554 5555 5556 5557 5558 5559 5560 5560 5561 5562 5562 5563 5564 5564 5564 5565 5565 5566 5566 5567 5567 5568 5568 5568 5568 5569 5569 5569 5569 5570 5570 5570 5570 5570 5570 5570 5570 5569 5569
5609 5606 5603 5600 5597 5593 5589 5586 5582 5578 5575 5571 5567 5564 5560 5557 5554 5551 5549 5546 5544 5542 5541 5540 5539 5538 5538 5537 5536 5536 5536 5535 5535 5535 5536 5537 5538 5539 5540 5542 5543 5543 5544 5545 5546 5547 5548 5549 5550 5551 5552 5553 5554 5555 5555 5556 5557 5558 5558 5559 5559 5560 5560 5561 5561 5562 5562 5563 5563 5563 5563 5564 5564 5564 5565 5565 5566 5566 5566 5566 5566 5566 5565 5565 5564
5607 5604 5601 5598 5595 5592 5588 5584 5580 5577 5573 5569 5565 5562 5558 5555 5552 5549 5547 5545 5542 5540 5539 5537 5536 5536 5535 5534 5533 5533 5533 5532 5532 5532 5532 5533 5533 5534 5535 5536 5537 5538 5539 5540 5541 5542 5543 5544 5545 5546 5547 5548 5549 5550 5551 5551 5552 5553 5553 5554 5555 5555 5556 5556 5557 5558 5558 5559 5559 5559 5559 5560 5560 5561 5561 5561 5562 5562 5562 5562 5562 5562 5561 5560 5560
5606 5602 5599 5596 5593 5590 5587 5583 5580 5576 5572 5568 5564 5560 5556 5553 5550 5547 5545 5543 5541 5539 5537 5535 5534 5533 5532 5531 5531 5530 5530 5530 5529 5529 5529 5529 5530 5530 5531 5532 5533 5534 5535 5536 5537 5538 5539 5540 5541 5542 5543 5544 5545 5545 5546 5547 5548 5548 5549 5550 5551 5551 5552 5552 5553 5554 5554 5555 5555 5556 5556 5556 5557 5557 5558 5558 5558 5559 5559 5558 5558 5557 5556 5555 5554
5603 5600 5597 5594 5591 5588 5585 5582 5578 5574 5571 5567 5563 5559 5555 5551 5548 5545 5543 5541 5539 5537 5535 5533 5532 5531 5530 5529 5528 5528 5527 5527 5527 5526 5526 5526 5527 5527 5527 5528 5529 5529 5530 5531 5532 5533 5534 5536 5537 5538 5539 5540 5540 5541 5542 5543 5544 5545 5546 5546 5547 5547 5548 5549 5549 5550 5551 5551 5552 5552 5553 5553 5554 5554 5555 5554 5554 5554 5554 5554 5553 5552 5551 5550 5549
5601 5598 5595 5592 5589 5586 5583 5579 5576 5573 5569 5565 5561 5557 5553 5550 5546 5543 5541 5539 5537 5535 5533 5532 5530 5529 5528 5527 5526 5525 5525 5524 5524 5524 5524 5524 5524 5524 5524 5524 5525 5526 5527 5527 5528 5529 5530 5532 5533 5534 5535 5536 5537 5538 5539 5540 5540 5541 5542 5543 5543 5544 5545 5545 5546 5547 5547 5548 5549 5549 5550 5550 5551 5551 5551 5551 5551 5550 5550 5549 5548 5547 5546 5545 5543
5599 5596 5593 5590 5586 5583 5580 5577 5574 5571 5567 5564 5560 5556 5552 5549 5545 5542 5539 5537 5535 5534 5532 5530 5529 5527 5526 5525 5524 5523 5522 5522 5522 5521 5521 5521 5521 5521 5521 5522 5522 5522 5523 5524 5525 5526 5527 5528 5529 5530 5531 5532 5533 5534 5535 5536 5537 5538 5538 5539 5540 5541 5542 5542 5543 5544 5544 5545 5546 5546 5547 5547 5547 5547 5547 5547 5547 5546 5545 5544 5543 5542 5541 5540 5539
5596 5593 5590 5587 5584 5581 5578 5575 5572 5569 5565 5562 5558 5554 5551 5547 5544 5541 5537 5535 5533 5532 5531 5529 5528 5526 5524 5523 5522 5521 5520 5520 5519 5519 5519 5519 5519 5519 5519 5519 5519 5520 5520 5521 5522 5523 5524 5525 5526 5527 5528 5529 5530 5531 5532 5533 5534 5535 5536 5536 5537 5538 5539 5540 5540 5541 5542 5542 5543 5543 5543 5544 5544 5543 5543 5543 5542 5542 5541 5540 5539 5538 5537 5537 5536